Find Local Weather

World > North America > United States > Iowa

Glenwood, Iowa Regional Weather

Lat: 41.05N, Lon: 95.74W
Wx Zone: IAZ079
Warning FLW WEATHER ALERT - (More Info. Click Here) Warning
Feedback
Expires:201808220400;;437722
ASUS43 KDMX 220306
RWRIA 

WEATHER ROUNDUP FOR IOWA
NATIONAL WEATHER SERVICE DES MOINES IA
1000 PM CDT TUE AUG 21 2018

NOTE: "FAIR" INDICATES FEW OR NO CLOUDS BELOW 12,000 FEET WITH NO
SIGNIFICANT WEATHER AND/OR OBSTRUCTIONS TO VISIBILITY.

* - THESE STATIONS ARE NOT NWS STATIONS...THUS NOT UNDER NWS
QUALITY CONTROL.  THEY ALSO DO NOT REPORT WEATHER SUCH 
AS PRECIPITATION OR FOG.  


IAZ055>058-069>071-079>083-090>094-220400-
   SOUTHWEST IOWA
  
CITY           SKY/WX    TMP DP  RH WIND       PRES   REMARKS
ATLANTIC *     CLOUDY    64  61  88 N6        30.22R                  
AUDUBON *      CLEAR     63  57  82 CALM      30.24R                  
CLARINDA *     MOCLDY    63  63 100 NE3       30.23R                  
COUNCIL BLFS * PTCLDY    63  63 100 N6        30.23R                  
CRESTON *      CLOUDY    64  61  88 N6        30.22R                  
HARLAN  *        N/A     63  61  94 N6        30.23R                  
LAMONI         CLEAR     65  60  84 N6        30.19R                  
RED OAK *      CLOUDY    68  63  83 NW7       30.22R                  
SHENANDOAH *   PTCLDY    64  63  94 CALM      30.22R                  
$$
 

SKY/WX - Weather  TMP - Temperature  DP - Dewpoint  RH - Relative Humidity
WIND - Wind Direction/Speed PRES - Barometric Pressure